Date String (YYYY-MM-DD hh:mm:ss) UTC,Instrument flags,Ambient pressure (hPa),Sample flow (lpm),Bypass flow (lpm),Sample temperature (°C),Ambient temperature (°C),ASC tube jacket temperature (°C),LED temperature (°C),Box temperature (°C),Sample RH (%),Span deviation,Mass concentration (μg/m³),Mass concentration (μg/m³),Mass concentration (μg/m³)
DateTimeUTC,F1_M11,P_M11,Q1_M11,Q2_M11,T1_M11,T2_M11,T3_M11,T4_M11,T5_M11,U1_M11,ZSPAN_M11,X0_M11,X2_M11,X1_M11
2022-11-08 15:00:00,,0822.4,5.02,0.00,23.3,21.9,00.0,32.1,25.2,17.3,-000.4,0015.74,0006.02,0004.87
2022-11-08 15:01:00,,0822.4,4.98,0.00,23.3,21.9,00.0,32.1,25.2,17.0,-000.9,0015.29,0006.01,0004.88
2022-11-08 15:02:00,,0822.4,5.01,0.00,23.3,21.9,00.0,32.1,25.2,16.2,-001.0,0014.78,0005.96,0004.89
2022-11-08 15:03:00,,0822.5,5.00,0.00,23.3,21.9,00.0,32.1,25.2,16.2,-000.9,0015.22,0005.95,0004.88
2022-11-08 15:04:00,,0822.6,5.00,0.00,23.3,21.9,00.0,32.1,25.2,17.1,-001.5,0015.81,0006.02,0004.89
2022-11-08 15:05:00,,0822.7,5.02,0.00,23.3,21.9,00.0,32.1,25.2,17.5,-001.5,0015.01,0006.02,0004.89
2022-11-08 15:06:00,,0822.5,4.98,0.00,23.3,21.9,00.0,32.1,25.2,16.7,-001.3,0014.19,0005.99,0004.89
2022-11-08 15:07:00,,0822.4,5.02,0.00,23.3,21.9,00.0,32.1,25.2,15.6,-001.5,0014.66,0005.90,0004.85
2022-11-08 15:08:00,,0822.4,4.98,0.00,23.3,21.9,00.0,32.1,25.2,14.8,-001.5,0014.86,0005.79,0004.78
2022-11-08 15:09:00,,0822.6,5.00,0.00,23.3,21.9,00.0,32.1,25.2,14.8,-001.2,0014.27,0005.63,0004.70
2022-11-08 15:10:00,,0822.7,5.00,0.00,23.3,21.9,00.0,32.1,25.2,15.0,-000.6,0013.88,0005.54,0004.63
2022-11-08 15:11:00,,0822.7,5.00,0.00,23.3,21.9,00.0,32.1,25.2,15.9,-000.1,0013.37,0005.47,0004.57
2022-11-08 15:12:00,,0822.6,5.01,0.00,23.3,21.9,00.0,32.1,25.1,16.8,-000.2,0013.57,0005.47,0004.51
2022-11-08 15:13:00,,0822.5,5.01,0.00,23.3,21.9,00.0,32.1,25.1,15.7,0000.2,0014.05,0005.45,0004.45
2022-11-08 15:14:00,,0822.4,5.00,0.00,23.3,21.9,00.0,32.1,25.1,15.4,-000.3,0013.31,0005.34,0004.38
2022-11-08 15:15:00,,0822.6,4.99,0.00,23.3,21.9,00.0,32.1,25.1,15.5,-000.5,0012.52,0005.22,0004.29
2022-11-08 15:16:00,,0822.6,5.00,0.00,23.3,21.9,00.0,32.1,25.1,14.6,-000.1,0013.73,0005.03,0004.16
2022-11-08 15:17:00,,0822.6,5.01,0.00,23.3,21.9,00.0,32.1,25.1,14.1,0000.0,0014.56,0004.90,0004.01
2022-11-08 15:18:00,,0822.6,4.99,0.00,23.3,21.9,00.0,32.1,25.1,14.6,0000.8,0014.48,0004.83,0003.91
2022-11-08 15:19:00,,0822.6,5.01,0.00,23.3,21.8,00.0,32.1,25.1,14.4,0000.9,0015.43,0004.85,0003.88
2022-11-08 15:20:00,,0822.6,5.00,0.00,23.3,21.9,00.0,32.1,25.1,13.3,0000.6,0015.55,0004.84,0003.85
2022-11-08 15:21:00,,0822.6,4.99,0.00,23.3,21.9,00.0,32.1,25.1,12.7,0000.2,0015.69,0004.70,0003.75
2022-11-08 15:22:00,,0822.6,5.00,0.00,23.3,21.9,00.0,32.1,25.1,12.6,0000.8,0015.87,0004.55,0003.62
2022-11-08 15:23:00,,0822.6,5.01,0.00,23.3,21.9,00.0,32.1,25.1,12.6,0001.7,0015.52,0004.38,0003.51
2022-11-08 15:24:00,,0822.6,4.99,0.00,23.3,21.9,00.0,32.1,25.2,12.6,0001.4,0015.31,0004.28,0003.43
2022-11-08 15:25:00,,0822.6,5.00,0.00,23.3,21.9,00.0,32.1,25.1,12.2,0002.0,0015.00,0004.13,0003.32
2022-11-08 15:26:00,,0822.6,5.00,0.00,23.3,21.9,00.0,32.1,25.1,12.0,0001.4,0014.55,0003.94,0003.20
2022-11-08 15:27:00,,0822.6,5.00,0.00,23.3,21.9,00.0,32.1,25.1,12.1,0000.0,0013.01,0003.85,0003.10
2022-11-08 15:28:00,,0822.6,5.00,0.00,23.3,21.9,00.0,32.1,25.1,12.6,0000.0,0011.85,0003.81,0003.05
2022-11-08 15:29:00,,0822.6,5.01,0.00,23.3,22.0,00.0,32.1,25.1,12.1,0000.0,0010.86,0003.75,0002.97
2022-11-08 15:30:00,,0822.6,4.99,0.00,23.3,22.0,00.0,32.1,25.1,11.8,0000.0,0009.58,0003.60,0002.80
2022-11-08 15:31:00,,0822.6,5.01,0.00,23.3,22.0,00.0,32.1,25.2,11.7,0000.0,0009.07,0003.49,0002.60
2022-11-08 15:32:00,,0822.6,5.00,0.00,23.3,22.0,00.0,32.1,25.2,11.8,0000.0,0009.43,0003.44,0002.52
2022-11-08 15:33:00,,0822.6,4.98,0.00,23.3,22.0,00.0,32.1,25.2,13.3,0000.7,0009.20,0003.47,0002.52
2022-11-08 15:34:00,,0822.6,5.02,0.00,23.3,22.0,00.0,32.1,25.2,11.9,0001.9,0009.24,0003.46,0002.49
2022-11-08 15:35:00,,0822.6,4.99,0.00,23.3,22.0,00.0,32.1,25.2,11.8,0003.5,0008.85,0003.41,0002.41
2022-11-08 15:36:00,,0822.6,4.99,0.00,23.3,22.0,00.0,32.1,25.2,11.8,0000.0,0008.73,0003.41,0002.36
2022-11-08 15:37:00,,0822.7,5.00,0.00,23.3,22.0,00.0,32.1,25.2,11.9,0001.5,0008.74,0003.42,0002.35
2022-11-08 15:38:00,,0822.6,5.00,0.00,23.3,22.0,00.0,32.1,25.2,12.1,0001.1,0008.65,0003.39,0002.35
2022-11-08 15:39:00,,0822.7,4.99,0.00,23.3,22.0,00.0,32.1,25.2,13.3,0000.0,0008.54,0003.35,0002.33
2022-11-08 15:40:00,,0822.7,5.00,0.00,23.3,22.0,00.0,32.1,25.2,14.7,0002.3,0008.75,0003.34,0002.33
2022-11-08 15:41:00,,0822.7,5.00,0.00,23.3,22.0,00.0,32.1,25.2,15.8,0002.5,0009.21,0003.39,0002.39
2022-11-08 15:42:00,,0822.6,5.01,0.00,23.3,22.0,00.0,32.1,25.2,14.7,0000.0,0009.13,0003.45,0002.48
2022-11-08 15:43:00,,0822.6,5.00,0.00,23.3,22.0,00.0,32.1,25.2,13.1,0000.0,0008.47,0003.45,0002.49
2022-11-08 15:44:00,,0822.6,5.00,0.00,23.3,22.0,00.0,32.1,25.2,13.6,0000.0,0008.16,0003.40,0002.46
2022-11-08 15:45:00,,0822.6,4.99,0.00,23.3,22.0,00.0,32.1,25.2,15.9,0000.0,0008.27,0003.43,0002.50
2022-11-08 15:46:00,,0822.6,5.02,0.00,23.3,22.1,00.0,32.1,25.2,17.3,0000.0,0008.96,0003.50,0002.64
2022-11-08 15:47:00,,0822.6,5.00,0.00,23.3,22.1,00.0,32.1,25.2,15.4,0000.0,0009.08,0003.58,0002.75
2022-11-08 15:48:00,,0822.7,4.98,0.00,23.3,22.1,00.0,32.1,25.2,15.1,0000.0,0010.53,0003.63,0002.78
2022-11-08 15:49:00,,0822.7,5.00,0.00,23.4,22.1,00.0,32.1,25.2,15.4,0000.0,0011.22,0003.68,0002.82
2022-11-08 15:50:00,,0822.7,4.99,0.00,23.4,22.1,00.0,32.1,25.2,16.6,-000.0,0012.57,0003.75,0002.85
2022-11-08 15:51:00,,0822.6,5.00,0.00,23.4,22.1,00.0,32.1,25.3,17.8,-001.2,0014.54,0003.88,0003.01
2022-11-08 15:52:00,,0822.6,5.00,0.00,23.4,22.1,00.0,32.1,25.3,17.4,-002.6,0015.09,0003.95,0003.10
2022-11-08 15:53:00,,0822.6,4.99,0.00,23.4,22.1,00.0,32.1,25.3,16.9,-003.1,0015.19,0003.98,0003.09
2022-11-08 15:54:00,,0822.6,5.01,0.00,23.4,22.1,00.0,32.2,25.3,17.8,-002.9,0015.38,0004.10,0003.17
2022-11-08 15:55:00,,0822.6,4.99,0.00,23.4,22.1,00.0,32.2,25.3,18.1,-002.7,0015.76,0004.21,0003.25
2022-11-08 15:56:00,,0822.7,4.98,0.00,23.4,22.1,00.0,32.2,25.3,18.3,-002.7,0017.23,0004.30,0003.32
2022-11-08 15:57:00,,0822.7,5.01,0.00,23.4,22.2,00.0,32.2,25.3,18.4,-002.8,0017.82,0004.38,0003.37
2022-11-08 15:58:00,,0822.7,4.99,0.00,23.4,22.2,00.0,32.2,25.3,18.3,-002.7,0018.64,0004.42,0003.43
2022-11-08 15:59:00,,0822.7,5.01,0.00,23.4,22.2,00.0,32.2,25.3,18.0,-002.6,0018.69,0004.51,0003.53
